When you browse on this site, cookies collect data to enhance your experience and personalize the content and advertising you see.
Visit our Privacy Policy to learn more. By continuing to use the site, you agree to this use of cookies and data.
  • In Romania
  • List of Countries
  • For 7 days
  • Water Temperature
  • Satellite Maps
  • Weather Map
  • Weather Widgets
  • user-avatar
    Login

    Hourly Weather Newcastle

    Today, 22 March, Friday

    Time Temperature Precipitation Wind Pressure Humidity
    00:00 +20°C° 0 mm 2 mps 761 mmHg 98%
    01:00 +20°C° 0 mm 2 mps 761 mmHg 98%
    02:00 +20°C° 0 mm 2 mps 761 mmHg 98%
    03:00 +20°C° 0 mm 2 mps 761 mmHg 99%
    04:00 +20°C° 0 mm 2 mps 761 mmHg 99%
    05:00 +20°C° 0 mm 2 mps 761 mmHg 98%
    06:00 +20°C° 0 mm 2 mps 762 mmHg 96%
    07:00 +21°C° 0 mm 2 mps 762 mmHg 95%
    08:00 +24°C° 0.1 mm 2 mps 762 mmHg 87%
    09:00 +25°C° 0.1 mm 2 mps 762 mmHg 79%
    10:00 +27°C° 0.1 mm 2 mps 762 mmHg 71%
    11:00 +28°C° 0.2 mm 2 mps 761 mmHg 67%
    12:00 +29°C° 0.2 mm 3 mps 761 mmHg 63%
    13:00 +30°C° 0.2 mm 3 mps 761 mmHg 58%
    14:00 +29°C° 0 mm 3 mps 760 mmHg 61%
    15:00 +28°C° 0 mm 3 mps 760 mmHg 63%
    16:00 +28°C° 0 mm 3 mps 760 mmHg 66%
    17:00 +26°C° 0 mm 3 mps 760 mmHg 74%
    18:00 +25°C° 0 mm 2 mps 760 mmHg 81%
    19:00 +23°C° 0 mm 2 mps 761 mmHg 89%
    20:00 +22°C° 0 mm 1 mps 761 mmHg 91%
    21:00 +22°C° 0 mm 1 mps 761 mmHg 92%
    22:00 +22°C° 0 mm 1 mps 761 mmHg 94%
    23:00 +21°C° 0 mm 1 mps 761 mmHg 95%

    Tomorrow, 23 March, Saturday

    Time Temperature Precipitation Wind Pressure Humidity
    00:00 +21°C° 0 mm 1 mps 761 mmHg 96%
    01:00 +21°C° 0 mm 1 mps 761 mmHg 97%
    02:00 +21°C° 0 mm 1 mps 760 mmHg 97%
    03:00 +20°C° 0 mm 1 mps 760 mmHg 97%
    04:00 +18°C° 0 mm 0 mps 760 mmHg 98%
    05:00 +21°C° 0 mm 1 mps 760 mmHg 96%
    06:00 +21°C° 0 mm 1 mps 760 mmHg 95%
    07:00 +21°C° 0 mm 1 mps 760 mmHg 93%
    08:00 +24°C° 0 mm 1 mps 760 mmHg 81%
    09:00 +27°C° 0 mm 2 mps 760 mmHg 68%
    10:00 +29°C° 0 mm 2 mps 760 mmHg 56%
    11:00 +31°C° 0 mm 2 mps 759 mmHg 50%
    12:00 +34°C° 0 mm 2 mps 758 mmHg 44%
    13:00 +35°C° 0 mm 2 mps 758 mmHg 37%
    14:00 +34°C° 0 mm 3 mps 758 mmHg 43%
    15:00 +33°C° 0 mm 4 mps 757 mmHg 48%
    16:00 +32°C° 0 mm 5 mps 757 mmHg 53%
    17:00 +29°C° 0 mm 4 mps 757 mmHg 63%
    18:00 +27°C° 0 mm 4 mps 758 mmHg 73%
    19:00 +26°C° 0 mm 3 mps 758 mmHg 82%
    20:00 +25°C° 0 mm 3 mps 759 mmHg 81%
    21:00 +25°C° 0 mm 3 mps 759 mmHg 80%
    22:00 +25°C° 0 mm 4 mps 759 mmHg 79%
    23:00 +25°C° 0 mm 4 mps 759 mmHg 78%

    Day after tomorrow, 24 March, Sunday

    Time Temperature Precipitation Wind Pressure Humidity
    00:00 +25°C° 0 mm 4 mps 759 mmHg 76%
    01:00 +23°C° 0 mm 4 mps 758 mmHg 75%
    02:00 +24°C° 0 mm 3 mps 758 mmHg 76%
    03:00 +22°C° 0 mm 3 mps 758 mmHg 76%
    04:00 +22°C° 0 mm 3 mps 757 mmHg 77%
    05:00 +22°C° 0 mm 3 mps 757 mmHg 76%
    06:00 +23°C° 0 mm 2 mps 758 mmHg 74%
    07:00 +24°C° 0 mm 2 mps 758 mmHg 73%
    08:00 +27°C° 0 mm 2 mps 758 mmHg 63%
    09:00 +30°C° 0 mm 2 mps 758 mmHg 52%
    10:00 +34°C° 0 mm 2 mps 758 mmHg 42%
    11:00 +36°C° 0 mm 2 mps 757 mmHg 37%
    12:00 +38°C° 0 mm 2 mps 757 mmHg 32%
    13:00 +40°C° 0 mm 2 mps 756 mmHg 28%
    14:00 +39°C° 0 mm 2 mps 756 mmHg 31%
    15:00 +38°C° 0 mm 3 mps 756 mmHg 35%
    16:00 +37°C° 0 mm 4 mps 755 mmHg 38%
    17:00 +35°C° 0 mm 3 mps 756 mmHg 48%
    18:00 +31°C° 0 mm 3 mps 756 mmHg 57%
    19:00 +29°C° 0 mm 2 mps 757 mmHg 66%
    20:00 +28°C° 0 mm 2 mps 757 mmHg 68%
    21:00 +27°C° 0 mm 2 mps 758 mmHg 71%
    22:00 +27°C° 0 mm 2 mps 758 mmHg 73%
    23:00 +26°C° 0 mm 2 mps 758 mmHg 78%

    25 March, Monday

    Time Temperature Precipitation Wind Pressure Humidity
    00:00 +25°C° 0 mm 2 mps 757 mmHg 83%
    01:00 +24°C° 0 mm 2 mps 757 mmHg 89%
    02:00 +24°C° 0 mm 2 mps 757 mmHg 88%
    03:00 +24°C° 0 mm 2 mps 756 mmHg 87%
    04:00 +24°C° 0 mm 2 mps 756 mmHg 85%
    05:00 +24°C° 0 mm 2 mps 757 mmHg 81%
    06:00 +25°C° 0 mm 2 mps 757 mmHg 76%
    07:00 +26°C° 0 mm 2 mps 757 mmHg 72%
    08:00 +28°C° 0 mm 3 mps 757 mmHg 63%
    09:00 +30°C° 0 mm 3 mps 757 mmHg 54%
    10:00 +34°C° 0 mm 3 mps 757 mmHg 45%
    11:00 +35°C° 0 mm 3 mps 756 mmHg 42%
    12:00 +36°C° 0 mm 3 mps 756 mmHg 39%
    13:00 +37°C° 0 mm 3 mps 755 mmHg 35%
    14:00 +37°C° 0 mm 3 mps 755 mmHg 37%
    15:00 +36°C° 0 mm 3 mps 755 mmHg 38%
    16:00 +35°C° 0 mm 2 mps 755 mmHg 40%
    17:00 +32°C° 0 mm 2 mps 755 mmHg 43%
    18:00 +31°C° 0 mm 2 mps 756 mmHg 47%
    19:00 +30°C° 0 mm 2 mps 756 mmHg 51%
    20:00 +28°C° 0.1 mm 2 mps 757 mmHg 58%
    21:00 +27°C° 0.1 mm 2 mps 757 mmHg 64%
    22:00 +26°C° 0.1 mm 2 mps 758 mmHg 71%
    23:00 +25°C° 0.9 mm 2 mps 758 mmHg 78%

    26 March, Tuesday

    Time Temperature Precipitation Wind Pressure Humidity
    00:00 +24°C° 0.9 mm 2 mps 758 mmHg 85%
    01:00 +23°C° 0.9 mm 2 mps 758 mmHg 92%
    02:00 +23°C° 0 mm 2 mps 758 mmHg 92%
    03:00 +23°C° 0 mm 2 mps 758 mmHg 92%
    04:00 +22°C° 0 mm 3 mps 758 mmHg 92%
    05:00 +21°C° 0 mm 4 mps 759 mmHg 88%
    06:00 +21°C° 0 mm 5 mps 760 mmHg 83%
    07:00 +20°C° 0 mm 6 mps 760 mmHg 79%
    08:00 +20°C° 0 mm 6 mps 761 mmHg 71%
    09:00 +20°C° 0 mm 5 mps 761 mmHg 63%
    10:00 +21°C° 0 mm 5 mps 762 mmHg 55%
    11:00 +20°C° 0 mm 5 mps 762 mmHg 58%
    12:00 +20°C° 0 mm 4 mps 762 mmHg 61%
    13:00 +19°C° 0 mm 4 mps 762 mmHg 64%
    14:00 +19°C° 0.1 mm 4 mps 762 mmHg 68%
    15:00 +20°C° 0.1 mm 4 mps 762 mmHg 72%
    16:00 +20°C° 0.1 mm 4 mps 762 mmHg 75%
    17:00 +20°C° 0 mm 4 mps 763 mmHg 74%
    18:00 +20°C° 0 mm 5 mps 764 mmHg 72%
    19:00 +20°C° 0 mm 5 mps 765 mmHg 71%
    20:00 +20°C° 0 mm 5 mps 765 mmHg 72%
    21:00 +20°C° 0 mm 5 mps 766 mmHg 73%
    22:00 +20°C° 0 mm 6 mps 767 mmHg 73%
    23:00 +20°C° 0.1 mm 6 mps 766 mmHg 74%

    27 March, Wednesday

    Time Temperature Precipitation Wind Pressure Humidity
    00:00 +20°C° 0.1 mm 6 mps 766 mmHg 74%
    01:00 +20°C° 0.1 mm 6 mps 766 mmHg 75%
    02:00 +19°C° 0.1 mm 6 mps 766 mmHg 76%
    03:00 +19°C° 0.1 mm 6 mps 766 mmHg 77%
    04:00 +19°C° 0.1 mm 6 mps 766 mmHg 78%
    05:00 +19°C° 0.1 mm 6 mps 767 mmHg 77%
    06:00 +19°C° 0.1 mm 6 mps 767 mmHg 75%
    07:00 +19°C° 0.1 mm 6 mps 768 mmHg 73%
    08:00 +20°C° 0 mm 6 mps 768 mmHg 69%
    09:00 +21°C° 0 mm 6 mps 768 mmHg 65%
    10:00 +22°C° 0 mm 6 mps 769 mmHg 61%
    11:00 +22°C° 0 mm 5 mps 768 mmHg 62%
    12:00 +22°C° 0 mm 5 mps 768 mmHg 62%
    13:00 +22°C° 0 mm 5 mps 767 mmHg 62%
    14:00 +22°C° 0.1 mm 5 mps 767 mmHg 64%
    15:00 +22°C° 0.1 mm 5 mps 767 mmHg 66%
    16:00 +21°C° 0.1 mm 5 mps 767 mmHg 68%
    17:00 +21°C° 0.1 mm 4 mps 767 mmHg 72%
    18:00 +20°C° 0.1 mm 4 mps 767 mmHg 76%
    19:00 +19°C° 0.1 mm 4 mps 767 mmHg 80%
    20:00 +19°C° 0.1 mm 4 mps 767 mmHg 82%
    21:00 +19°C° 0.1 mm 4 mps 767 mmHg 84%
    22:00 +19°C° 0.1 mm 4 mps 767 mmHg 86%
    23:00 +19°C° 0.1 mm 4 mps 767 mmHg 86%
    Show more